Location: Mascot Post Office (historical)
(40.2645°N, 99.5462°W)
Time: 17:11:04
(UTC+00:00)

SeaSat 1 - Pass Details

Date: 14 July 2020
Orbit: 744 x 747 km, 108.0° (Epoch: 04 August)

Event Time Altitude Azimuth Distance (km) Brightness Sun altitude
Rises 08:55:09 0° 21° (NNE) 3,199 7.2 -21.0°
Reaches altitude 10° 08:57:27 10° 18° (NNE) 2,271 6.0 -20.8°
Maximum altitude 09:02:17 57° 300° (WNW) 878 2.7 -20.3°
Enters shadow 09:03:53 39° 243° (WSW) 1,121 2.9 -20.1°
